Previsão horária em Abasolo

Hoje, 20 Janeiro, Quarta-feira

Tempo Temperatura Precipitação Vento Pressão Humidade
00:00 +15°C° 0 mm 0 m/s 622 mmHg 66%
01:00 +14°C° 0 mm 0 m/s 622 mmHg 68%
02:00 +15°C° 0 mm 1 m/s 622 mmHg 70%
03:00 +14°C° 0 mm 1 m/s 622 mmHg 75%
04:00 +14°C° 0 mm 1 m/s 622 mmHg 81%
05:00 +13°C° 0 mm 2 m/s 622 mmHg 86%
06:00 +14°C° 0 mm 2 m/s 622 mmHg 81%
07:00 +15°C° 0 mm 2 m/s 623 mmHg 77%
08:00 +14°C° 0 mm 3 m/s 624 mmHg 72%
09:00 +18°C° 0 mm 3 m/s 625 mmHg 62%
10:00 +20°C° 0 mm 3 m/s 625 mmHg 52%
11:00 +24°C° 0 mm 3 m/s 626 mmHg 42%
12:00 +25°C° 0 mm 2 m/s 625 mmHg 38%
13:00 +26°C° 0 mm 2 m/s 625 mmHg 34%
14:00 +27°C° 0 mm 1 m/s 624 mmHg 31%
15:00 +26°C° 0 mm 1 m/s 624 mmHg 33%
16:00 +25°C° 0 mm 1 m/s 624 mmHg 36%
17:00 +24°C° 0 mm 1 m/s 623 mmHg 38%
18:00 +22°C° 0 mm 1 m/s 624 mmHg 45%
19:00 +21°C° 0 mm 1 m/s 624 mmHg 52%
20:00 +19°C° 0 mm 1 m/s 624 mmHg 59%
21:00 +18°C° 0 mm 1 m/s 624 mmHg 64%
22:00 +15°C° 0 mm 0 m/s 624 mmHg 70%
23:00 +14°C° 0 mm 0 m/s 624 mmHg 75%

Amanhã, 21 Janeiro, Quinta-feira

Tempo Temperatura Precipitação Vento Pressão Humidade
00:00 +13°C° 0 mm 0 m/s 623 mmHg 80%
01:00 +13°C° 0 mm 0 m/s 622 mmHg 84%
02:00 +12°C° 0 mm 0 m/s 622 mmHg 88%
03:00 +12°C° 0 mm 0 m/s 622 mmHg 90%
04:00 +11°C° 0 mm 0 m/s 622 mmHg 91%
05:00 +12°C° 0 mm 1 m/s 622 mmHg 93%
06:00 +14°C° 0 mm 1 m/s 622 mmHg 86%
07:00 +15°C° 0 mm 1 m/s 623 mmHg 79%
08:00 +16°C° 0 mm 1 m/s 623 mmHg 73%
09:00 +21°C° 0 mm 1 m/s 624 mmHg 59%
10:00 +25°C° 0 mm 1 m/s 625 mmHg 45%
11:00 +28°C° 0 mm 1 m/s 626 mmHg 31%
12:00 +29°C° 0 mm 2 m/s 625 mmHg 27%
13:00 +29°C° 0 mm 2 m/s 625 mmHg 23%
14:00 +30°C° 0 mm 3 m/s 624 mmHg 19%
15:00 +29°C° 0 mm 3 m/s 623 mmHg 22%
16:00 +28°C° 0 mm 3 m/s 623 mmHg 24%
17:00 +26°C° 0 mm 3 m/s 622 mmHg 26%
18:00 +24°C° 0 mm 3 m/s 622 mmHg 32%
19:00 +20°C° 0 mm 2 m/s 622 mmHg 37%
20:00 +18°C° 0 mm 1 m/s 621 mmHg 42%
21:00 +18°C° 0 mm 1 m/s 621 mmHg 46%
22:00 +16°C° 0 mm 1 m/s 621 mmHg 50%
23:00 +15°C° 0 mm 1 m/s 621 mmHg 54%

Depois de amanhã, 22 Janeiro, Sexta-feira

Tempo Temperatura Precipitação Vento Pressão Humidade
00:00 +14°C° 0 mm 1 m/s 621 mmHg 57%
01:00 +14°C° 0 mm 1 m/s 620 mmHg 60%
02:00 +13°C° 0 mm 1 m/s 620 mmHg 63%
03:00 +12°C° 0 mm 1 m/s 620 mmHg 66%
04:00 +11°C° 0 mm 0 m/s 620 mmHg 69%
05:00 +10°C° 0 mm 0 m/s 620 mmHg 72%
06:00 +12°C° 0 mm 0 m/s 621 mmHg 65%
07:00 +14°C° 0 mm 0 m/s 622 mmHg 58%
08:00 +16°C° 0 mm 0 m/s 623 mmHg 51%
09:00 +20°C° 0 mm 0 m/s 624 mmHg 42%
10:00 +24°C° 0 mm 0 m/s 625 mmHg 33%
11:00 +27°C° 0 mm 0 m/s 626 mmHg 24%
12:00 +30°C° 0 mm 1 m/s 625 mmHg 22%
13:00 +30°C° 0 mm 1 m/s 624 mmHg 19%
14:00 +30°C° 0 mm 2 m/s 623 mmHg 17%
15:00 +29°C° 0 mm 2 m/s 623 mmHg 18%
16:00 +28°C° 0 mm 2 m/s 622 mmHg 19%
17:00 +27°C° 0 mm 2 m/s 622 mmHg 20%
18:00 +24°C° 0 mm 2 m/s 621 mmHg 25%
19:00 +21°C° 0 mm 1 m/s 621 mmHg 29%
20:00 +18°C° 0 mm 1 m/s 621 mmHg 34%
21:00 +16°C° 0 mm 1 m/s 620 mmHg 37%
22:00 +16°C° 0 mm 1 m/s 620 mmHg 40%
23:00 +15°C° 0 mm 1 m/s 620 mmHg 43%

23 Janeiro, Sábado

Tempo Temperatura Precipitação Vento Pressão Humidade
00:00 +14°C° 0 mm 1 m/s 620 mmHg 46%
01:00 +14°C° 0 mm 1 m/s 620 mmHg 49%
02:00 +13°C° 0 mm 1 m/s 620 mmHg 52%
03:00 +12°C° 0 mm 0 m/s 619 mmHg 54%
04:00 +11°C° 0 mm 0 m/s 619 mmHg 57%
05:00 +11°C° 0 mm 0 m/s 619 mmHg 59%
06:00 +13°C° 0 mm 0 m/s 620 mmHg 54%
07:00 +14°C° 0 mm 0 m/s 621 mmHg 49%
08:00 +16°C° 0 mm 0 m/s 622 mmHg 44%
09:00 +20°C° 0 mm 0 m/s 623 mmHg 37%
10:00 +23°C° 0 mm 0 m/s 624 mmHg 30%
11:00 +27°C° 0 mm 0 m/s 625 mmHg 23%
12:00 +28°C° 0 mm 0 m/s 625 mmHg 21%
13:00 +30°C° 0 mm 1 m/s 624 mmHg 20%
14:00 +31°C° 0 mm 1 m/s 623 mmHg 18%
15:00 +29°C° 0 mm 1 m/s 623 mmHg 20%
16:00 +27°C° 0 mm 1 m/s 622 mmHg 22%
17:00 +26°C° 0 mm 1 m/s 621 mmHg 24%
18:00 +24°C° 0 mm 1 m/s 621 mmHg 28%
19:00 +22°C° 0 mm 1 m/s 621 mmHg 32%
20:00 +20°C° 0 mm 1 m/s 621 mmHg 36%
21:00 +19°C° 0 mm 1 m/s 621 mmHg 39%
22:00 +18°C° 0 mm 1 m/s 620 mmHg 43%
23:00 +16°C° 0 mm 1 m/s 620 mmHg 46%

24 Janeiro, Domingo

Tempo Temperatura Precipitação Vento Pressão Humidade
00:00 +15°C° 0 mm 1 m/s 620 mmHg 49%
01:00 +15°C° 0 mm 1 m/s 619 mmHg 51%
02:00 +13°C° 0 mm 0 m/s 619 mmHg 53%
03:00 +12°C° 0 mm 0 m/s 619 mmHg 56%
04:00 +12°C° 0 mm 0 m/s 619 mmHg 59%
05:00 +11°C° 0 mm 0 m/s 619 mmHg 61%
06:00 +13°C° 0 mm 0 m/s 620 mmHg 56%
07:00 +15°C° 0 mm 0 m/s 621 mmHg 50%
08:00 +17°C° 0 mm 0 m/s 622 mmHg 44%
09:00 +21°C° 0 mm 0 m/s 623 mmHg 36%
10:00 +25°C° 0 mm 0 m/s 624 mmHg 29%
11:00 +28°C° 0 mm 0 m/s 625 mmHg 21%
12:00 +31°C° 0 mm 1 m/s 624 mmHg 20%
13:00 +31°C° 0 mm 1 m/s 623 mmHg 18%
14:00 +31°C° 0 mm 2 m/s 622 mmHg 17%
15:00 +30°C° 0 mm 2 m/s 622 mmHg 18%
16:00 +28°C° 0 mm 2 m/s 621 mmHg 19%
17:00 +27°C° 0 mm 2 m/s 621 mmHg 20%
18:00 +24°C° 0 mm 2 m/s 620 mmHg 25%
19:00 +20°C° 0 mm 2 m/s 620 mmHg 30%
20:00 +17°C° 0 mm 2 m/s 620 mmHg 34%
21:00 +16°C° 0 mm 1 m/s 620 mmHg 38%
22:00 +15°C° 0 mm 1 m/s 619 mmHg 42%
23:00 +14°C° 0 mm 1 m/s 619 mmHg 46%

25 Janeiro, Segunda-feira

Tempo Temperatura Precipitação Vento Pressão Humidade
00:00 +14°C° 0 mm 1 m/s 619 mmHg 48%
01:00 +13°C° 0 mm 1 m/s 619 mmHg 51%
02:00 +12°C° 0 mm 1 m/s 618 mmHg 54%
03:00 +12°C° 0 mm 1 m/s 618 mmHg 56%
04:00 +11°C° 0 mm 1 m/s 618 mmHg 59%
05:00 +10°C° 0 mm 0 m/s 618 mmHg 61%
06:00 +12°C° 0 mm 0 m/s 619 mmHg 55%
07:00 +14°C° 0 mm 0 m/s 620 mmHg 49%
08:00 +16°C° 0 mm 0 m/s 621 mmHg 43%
09:00 +21°C° 0 mm 1 m/s 622 mmHg 35%
10:00 +25°C° 0 mm 1 m/s 623 mmHg 27%
11:00 +28°C° 0 mm 2 m/s 623 mmHg 19%
12:00 +29°C° 0 mm 2 m/s 623 mmHg 17%
13:00 +29°C° 0 mm 3 m/s 622 mmHg 16%
14:00 +30°C° 0 mm 3 m/s 621 mmHg 14%
15:00 +29°C° 0 mm 3 m/s 621 mmHg 16%
16:00 +27°C° 0 mm 3 m/s 620 mmHg 17%
17:00 +26°C° 0 mm 3 m/s 620 mmHg 18%
18:00 +23°C° 0 mm 2 m/s 620 mmHg 24%
19:00 +19°C° 0 mm 2 m/s 619 mmHg 30%
20:00 +16°C° 0 mm 1 m/s 619 mmHg 35%
21:00 +15°C° 0 mm 1 m/s 619 mmHg 39%
22:00 +15°C° 0 mm 1 m/s 619 mmHg 42%
23:00 +14°C° 0 mm 1 m/s 619 mmHg 45%
Mostrar mais